Location: ??????
(41.3794°N, 22.5014°E)
Time: 08:20:58
(UTC+00:00)

H-2A R/B - Pass Details

Date: 30 November 2020
Orbit: 733 x 836 km, 98.2° (Epoch: 17 January)

Event Time Altitude Azimuth Distance (km) Brightness Sun altitude
Rises 17:57:31 0° 182° (S) 3,330 5.4 -32.4°
Enters shadow 17:59:26 - 187° (S) 2,597 4.8 -32.8°
Exits shadow 18:06:41 34° 306° (NW) 1,283 3.4 -34.1°
Drops below altitude 10° 18:09:59 10° 334° (NNW) 2,341 4.7 -34.8°
Sets 18:12:22 0° 341° (NNW) 3,257 5.5 -35.2°
